Location: Aalen
(48.8330°N, 10.1000°E)
Time: 08:55:47
(UTC+02:00)

Transit 2A - Pass Details

Date: 01 August 2021
Orbit: 594 x 964 km, 66.7° (Epoch: 24 September)

Event Time Altitude Azimuth Distance (km) Brightness Sun altitude
Rises 15:54:24 0° 324° (NW) 3,207 9.3 46.9°
Reaches altitude 10° 15:56:41 10° 324° (NW) 2,334 8.7 46.6°
Maximum altitude 16:02:06 88° 236° (SW) 844 7.1 45.9°
Drops below altitude 10° 16:08:04 10° 147° (SSE) 2,564 8.8 45.0°
Sets 16:10:40 0° 147° (SSE) 3,544 9.4 44.6°
